sat.trackr.live / text

‹ back to catalog

STARLINK-32313

NORAD 61527 · 2024-183U

PAYLOAD ACTIVE UNKNOWN

§ Identity

Operator
Country
US
Launch date
2024-10-15
Launch site
AFETR
Launch vehicle
Mass (kg)
RCS (m²)

Purposes: comms

External: N2YO · Heavens-Above · Gunter

§ Orbital elements

Epoch: 2026-09-21T09:15:22.059072Z

Period
93.85 min
Inclination
53.1610°
Eccentricity
0.0001085
Mean motion
15.34383141 rev/d
Perigee alt
462.0 km
Apogee alt
463.5 km
Semi-major
6,840.9 km
B*
3.3192e-5
RAAN
311.3720°
Arg perigee
88.4915°
Mean anomaly
271.6212°
Rev number
10,964

§ Raw data

STARLINK-323131 61527U 24183U   26264.38567198  .00000745  00000+0  33192-4 0  99932 61527  53.1610 311.3720 0001085  88.4915 271.6212 15.34383141109649

JSON: /api/v1/satellites/61527 · /tle

For live sub-satellite position, see the globe view (requires WebGL).

§ Visibility from observer

Set your observer location to see the next 7 days of passes ≥ 10°. The values pass through the URL so the page stays shareable.

No JS? Fill the form by hand. The geolocation button needs JavaScript.